User: anonymous   Login
Location: Indian Springs
(36.5700°N, 115.6700°W)
Time: 17:17:55
(UTC-07:00)
Language:

Cosmos 2278 Rocket - Orbit

View from above orbital plane
View from above orbital plane
View from above satellite
View from above satellite

Ground track
Ground track

The orbit data is extracted from the following two-line orbital elements,

1 23088U 94023B   16267.97976920  .00000157  00000-0  10653-3 0  9991
2 23088  70.9991 120.7851 0002626 185.8064 174.3028 14.14649415157894
Epoch (UTC): 23 September 2016 23:30:52
Eccentricity: 0.0002626
inclination: 70.9991°
perigee height: 841 km
apogee height: 845 km
right ascension of ascending node: 120.7851°
argument of perigee: 185.8064°
revolutions per day: 14.14649415
mean anomaly at epoch: 174.3028°
orbit number at epoch: 15789

The dashed part of the orbit path shows where the satellite is in the earth's shadow,  

DLR